Location: Kimberly
(42.5380°N, 114.3640°W)
Time: 11:16:35
(UTC-07:00)

ISS - Pass Details

Date: 23 December 2025
Orbit: 414 x 424 km, 51.6° (Epoch: 12 January)

Event Time Altitude Azimuth Distance (km) Brightness Sun altitude
Exits shadow 06:56:51 14° 331° (NNW) 1,320 -1.7 -12.1°
Maximum altitude 06:58:35 18° 7° (N) 1,103 -1.8 -11.8°
Drops below altitude 10° 07:01:04 10° 54° (NE) 1,517 -0.5 -11.4°
Sets 07:03:39 0° 74° (ENE) 2,394 1.0 -10.9°
